Zurück zum Katalog

STARLINK-4743

AktivKommunikationVLEO
NORAD 53787·PAYLOAD·🇺🇸 United States

Gestartet Sep 11, 2022 von Cape Canaveral Space Force Station

Loading…

Nächste Überflüge (nächste 24 Stunden)

TLE

AktuellSource: CelesTrak SupGP

Epoche: Sep 14, 2026, 21:44 UTC

1 53787C 22111Q   26257.90604167 -.00016378  00000+0 -52679-3 0  2577
2 53787  53.1565 132.3204 0001240  89.2379 105.1155 15.31703107    14

Verfolge STARLINK-4743 in Echtzeit mit AllMySat

Download on the App Store